This demonstration page uses our WeatherBlox Daily Observations layout. Learn more.

Hourly Observations for August 27, 2015

Temp ( °F °C ) Dew Point ( °F °C ) Humidity (%) Winds ( mph kmh ) Pressure ( in mb ) Visibility ( mi km ) Precip ( " mm )
12:15 am 00:15 Clear 73 23 70 21 89 89 SSE 10 17 29.91 1013 10 16.09344 0 0
12:35 am 00:35 Clear 73 23 70 21 89 89 SE 9 15 29.91 1013 10 16.09344 0 0
12:55 am 00:55 Clear 73 23 70 21 89 89 SSE 8 13 29.91 1013 10 16.09344 0 0
1:15 am 01:15 Clear 73 23 70 21 89 89 SSE 9 15 29.91 1013 10 16.09344 0 0
1:35 am 01:35 Clear 72 22 70 21 94 94 SSE 8 13 29.88 1012 10 16.09344 0 0
1:55 am 01:55 Clear 72 22 68 20 88 88 SSE 7 11 29.88 1012 10 16.09344 0 0
2:15 am 02:15 Clear 72 22 68 20 88 88 SSE 7 11 29.88 1012 10 16.09344 0 0
2:35 am 02:35 Clear 72 22 68 20 88 88 SSE 7 11 29.88 1012 10 16.09344 0 0
2:55 am 02:55 Clear 72 22 68 20 88 88 SSE 8 13 29.88 1012 10 16.09344 0 0
3:15 am 03:15 Clear 70 21 68 20 94 94 SSE 8 13 29.88 1012 7 11.265408 0 0
3:35 am 03:35 Clear 70 21 68 20 94 94 SSE 7 11 29.88 1012 7 11.265408 0 0
3:55 am 03:55 Clear 70 21 68 20 94 94 SSE 7 11 29.88 1012 7 11.265408 0 0
4:15 am 04:15 Clear 70 21 68 20 94 94 SSE 8 13 29.88 1012 7 11.265408 0 0
4:35 am 04:35 Clear 70 21 66 19 88 88 S 7 11 29.88 1012 7 11.265408 0 0
4:55 am 04:55 Clear 70 21 66 19 88 88 SSE 7 11 29.88 1012 7 11.265408 0 0
5:15 am 05:15 Clear 68 20 66 19 94 94 SSE 8 13 29.88 1012 7 11.265408 0 0
5:35 am 05:35 Clear 68 20 66 19 94 94 SSE 8 13 29.85 1011 7 11.265408 0 0
5:55 am 05:55 Clear 68 20 66 19 94 94 SSE 7 11 29.85 1011 7 11.265408 0 0
6:15 am 06:15 Clear 68 20 66 19 94 94 SSE 7 11 29.85 1011 7 11.265408 0 0
6:35 am 06:35 Clear 68 20 66 19 94 94 SSE 7 11 29.85 1011 7 11.265408 0 0
6:55 am 06:55 Clear 68 20 64 18 88 88 S 8 13 29.85 1011 7 11.265408 0 0
7:15 am 07:15 Sunny 66 19 64 18 94 94 SSE 7 11 29.85 1011 7 11.265408 0 0
7:35 am 07:35 Sunny 68 20 64 18 88 88 SSE 8 13 29.85 1011 7 11.265408 0 0
7:55 am 07:55 Sunny 68 20 64 18 88 88 SSE 8 13 29.85 1011 7 11.265408 0 0
8:15 am 08:15 Sunny 68 20 64 18 88 88 SSE 7 11 29.85 1011 7 11.265408 0 0
8:35 am 08:35 Sunny 68 20 66 19 94 94 SSE 7 11 29.85 1011 10 16.09344 0 0
8:55 am 08:55 Sunny 70 21 66 19 88 88 SSE 7 11 29.85 1011 10 16.09344 0 0
9:15 am 09:15 Sunny 72 22 66 19 83 83 SSE 8 13 29.85 1011 10 16.09344 0 0
9:35 am 09:35 Sunny 73 23 66 19 78 78 SSE 7 11 29.83 1010 10 16.09344 0 0
9:55 am 09:55 Sunny 75 24 64 18 69 69 Calm 29.83 1010 10 16.09344 0 0
10:15 am 10:15 Sunny 77 25 64 18 65 65 SSE 7 11 29.8 1009 10 16.09344 0 0
10:35 am 10:35 Sunny 79 26 63 17 58 58 SSE 5 7 29.77 1008 10 16.09344 0 0
10:55 am 10:55 Sunny 79 26 63 17 58 58 SSE 7 11 29.77 1008 10 16.09344 0 0
11:15 am 11:15 Sunny 81 27 63 17 54 54 SSE 9 15 29.77 1008 10 16.09344 0 0
11:35 am 11:35 Sunny 81 27 63 17 54 54 SE 8 13 29.77 1008 10 16.09344 0 0
11:55 am 11:55 Sunny 84 29 63 17 48 48 SE 9 15 29.77 1008 10 16.09344 0 0
12:15 pm 12:15 Sunny 82 28 64 18 55 55 ESE 13 20 29.77 1008 10 16.09344 0 0
12:35 pm 12:35 Sunny 82 28 66 19 58 58 ESE 14 22 29.77 1008 10 16.09344 0 0
12:55 pm 12:55 Sunny 82 28 64 18 55 55 SE 10 17 29.77 1008 10 16.09344 0 0
1:15 pm 13:15 Sunny 84 29 64 18 51 51 ESE 13 20 29.77 1008 10 16.09344 0 0
1:35 pm 13:35 Sunny 86 30 64 18 49 49 SE 9 15 29.74 1007 10 16.09344 0 0
1:55 pm 13:55 Sunny 84 29 63 17 48 48 SE 12 19 29.74 1007 10 16.09344 0 0
2:15 pm 14:15 Partly Cloudy 84 29 63 17 48 48 ESE 10 17 29.74 1007 10 16.09344 0 0
2:35 pm 14:35 Sunny with Light Drizzle 81 27 66 19 62 62 ESE 13 20 29.74 1007 10 16.09344 0 0
2:55 pm 14:55 Partly Cloudy 82 28 66 19 58 58 ESE 16 26 29.71 1006 10 16.09344 0 0
3:15 pm 15:15 Sunny 82 28 68 20 62 62 ESE 21 33 29.68 1005 10 16.09344 0 0
3:35 pm 15:35 Sunny 86 30 68 20 55 55 ESE 20 31 29.65 1004 10 16.09344 0 0
3:55 pm 15:55 Sunny 86 30 68 20 55 55 SE 20 31 29.65 1004 10 16.09344 0 0
4:15 pm 16:15 Sunny 90 32 68 20 49 49 SE 20 31 29.62 1003 10 16.09344 0 0
4:35 pm 16:35 Sunny 91 33 64 18 41 41 SE 21 33 29.59 1002 10 16.09344 0 0
4:55 pm 16:55 Sunny 90 32 66 19 46 46 SSE 13 20 29.62 1003 10 16.09344 0 0
5:15 pm 17:15 Sunny 90 32 66 19 46 46 SE 18 30 29.62 1003 10 16.09344 0 0
5:35 pm 17:35 Sunny 88 31 68 20 52 52 SE 17 28 29.62 1003 10 16.09344 0 0
5:55 pm 17:55 Sunny 88 31 68 20 52 52 SE 22 35 29.62 1003 10 16.09344 0 0
6:15 pm 18:15 Sunny 84 29 66 19 55 55 SSE 23 37 29.62 1003 10 16.09344 0 0
6:35 pm 18:35 Sunny 82 28 66 19 58 58 SE 14 22 29.65 1004 10 16.09344 0 0
6:55 pm 18:55 Sunny 82 28 66 19 58 58 SSE 16 26 29.65 1004 10 16.09344 0 0
7:15 pm 19:15 Sunny 81 27 66 19 62 62 SSE 21 33 29.65 1004 10 16.09344 0 0
7:35 pm 19:35 Sunny 81 27 66 19 62 62 SE 16 26 29.68 1005 10 16.09344 0 0
7:55 pm 19:55 Sunny 79 26 66 19 65 65 SSE 13 20 29.68 1005 10 16.09344 0 0
8:15 pm 20:15 Sunny 77 25 64 18 65 65 SSE 17 28 29.68 1005 10 16.09344 0 0
8:35 pm 20:35 Clear 77 25 64 18 65 65 SSE 18 30 29.68 1005 10 16.09344 0 0
8:55 pm 20:55 Clear 75 24 64 18 69 69 SSE 13 20 29.71 1006 10 16.09344 0 0
9:15 pm 21:15 Clear 75 24 64 18 69 69 SSE 13 20 29.71 1006 10 16.09344 0 0
9:35 pm 21:35 Clear 73 23 64 18 74 74 SSE 10 17 29.71 1006 10 16.09344 0 0
9:55 pm 21:55 Clear 72 22 64 18 78 78 SSE 10 17 29.71 1006 10 16.09344 0 0
10:15 pm 22:15 Clear 72 22 64 18 78 78 SSE 7 11 29.71 1006 10 16.09344 0 0
10:35 pm 22:35 Clear 72 22 64 18 78 78 SE 7 11 29.74 1007 10 16.09344 0 0
10:55 pm 22:55 Clear 72 22 64 18 78 78 S 9 15 29.71 1006 10 16.09344 0 0
11:15 pm 23:15 Clear 72 22 63 17 73 73 S 6 9 29.74 1007 10 16.09344 0 0
11:35 pm 23:35 Clear 73 23 64 18 74 74 S 12 19 29.74 1007 10 16.09344 0 0
11:55 pm 23:55 Clear 73 23 64 18 74 74 S 12 19 29.74 1007 10 16.09344 0 0

Powered by AerisWeather